[[{"header":{"parameterUnit":"m.s-1","parameterCategory":2,"la1":30.2991,"la2":30.254,"lo1":-89.0895,"lo2":-89.0444,"dy":0.0017,"dx":0.0017,"nx":28,"ny":28,"refTime":"2024-06-05T21:00:00:Z","depth":"0","parameterNumber":2,"parameterNumberName":"U-component_of_CURRENTS"},"data":[0,0,0,0,0,0,0,0,0,0,0,0,0,0,0,0,0,0,0,0,0,0,0,0,0,0,0,0,0,0,0,0,0,0,0,0,0,0,0,0,0,0,0,0,0,0,0,0,0,0,0,0,0,0,0,0,0,0,0.3133,0.3134,0,0.3206,0.3207,0.3207,0.3207,0.3206,0.3206,0.3205,0.3255,0.3257,0.3259,0,0,0,0,0,0,0,0,0,0,0,0,0,0.3004,0.3006,0.3133,0.3134,0.3135,0.3206,0.3207,0.3208,0.3207,0.3206,0.3205,0.3205,0.3254,0.3256,0.3259,0,0,0,0,0,0,0,0,0,0,0,0,0,0.3064,0.3007,0.3133,0.3145,0.3147,0.3206,0.3207,0.3208,0.3207,0.3206,0.3205,0.3204,0.3253,0.3256,0.3259,0.33,0,0,0.3268,0.327,0,0,0,0,0,0,0,0,0.3061,0.3069,0.3142,0.3144,0.3147,0.3198,0.318,0.3238,0.3208,0.3182,0.3205,0.3204,0.3236,0.324,0.3254,0.3302,0.3305,0.3269,0.327,0.3272,0.3273,0,0,0,0,0,0,0,0.3057,0.3066,0.3159,0.3144,0.3146,0.3151,0.3158,0.3191,0.3212,0.3184,0.3185,0.3197,0.3237,0.3251,0.3255,0.3305,0.3268,0.3271,0.3273,0.3274,0.3387,0.3388,0,0,0,0,0,0,0.3054,0.3062,0.3157,0.3162,0.3103,0.3155,0.3162,0.3181,0.3212,0.3217,0.3198,0.3197,0.3246,0.3251,0.3256,0.3322,0.3272,0.3274,0.3276,0.3386,0.3388,0.3389,0,0,0,0,0,0,0.3051,0.3062,0.3154,0.3115,0.3127,0.3158,0.3179,0.3183,0.3202,0.3224,0.3227,0.3214,0.3245,0.3252,0.3289,0.3323,0.3276,0.3279,0.3385,0.3387,0.3388,0.3444,0,0,0,0,0,0,0.3047,0.306,0.3075,0.3115,0.3129,0.3201,0.3181,0.3185,0.3212,0.3212,0.3238,0.3241,0.3245,0.3285,0.3292,0.3326,0.3281,0.3383,0.3386,0.3388,0.344,0.3447,0.3453,0,0,0,0,0,0.3042,0.307,0.3075,0.3087,0.3148,0.3203,0.3211,0.3227,0.3214,0.3236,0.3245,0.3241,0.3304,0.3289,0.3297,0.3333,0.3382,0.3385,0.3387,0.3437,0.3446,0.3453,0,0,0,0,0,0,0.3023,0.3074,0.308,0.3122,0.3164,0.3204,0.3229,0.3235,0.3261,0.3257,0.3262,0.3267,0.3311,0.3314,0.3297,0.337,0.3341,0.3346,0.3376,0.3384,0.339,0.3369,0.3283,0,0,0,0,0,0.3026,0.3059,0.3107,0.3142,0.3165,0.3197,0.322,0.3234,0.3262,0.3272,0.3286,0.3303,0.3331,0.3349,0.3371,0.3419,0.344,0.3444,0.3451,0.3456,0.3444,0.3486,0.3496,0.3398,0.3398,0.3398,0,0,0.3027,0.3061,0.3079,0.314,0.3171,0.3219,0.3208,0.3255,0.3287,0.3275,0.3318,0.3328,0.3347,0.3394,0.3414,0.3401,0.351,0.346,0.3464,0.3449,0.349,0.35,0.3508,0.3399,0.3399,0.3399,0,0,0.3056,0.308,0.3121,0.3161,0.3218,0.3241,0.3256,0.3303,0.3316,0.3365,0.3358,0.338,0.3432,0.3443,0.3458,0.3513,0.3539,0.3529,0.3551,0.3593,0.3601,0.3609,0.3712,0.3728,0.3535,0.3535,0.3535,0,0.3056,0.3115,0.3142,0.3196,0.3229,0.3252,0.3302,0.333,0.3378,0.3392,0.3385,0.3442,0.3453,0.3503,0.3514,0.3528,0.3574,0.3523,0.3602,0.3609,0.3615,0.3718,0.3735,0.3538,0.3538,0.3537,0.3537,0,0.3123,0.3167,0.3198,0.3267,0.3304,0.3355,0.3396,0.3426,0.3439,0.3459,0.3505,0.3518,0.3549,0.3561,0.3555,0.3609,0.364,0.3605,0.3582,0.3629,0.3735,0.3752,0.3542,0.3541,0.354,0.354,0,0,0.3136,0.3225,0.3237,0.3269,0.3345,0.3379,0.3436,0.3489,0.3519,0.3552,0.3592,0.3622,0.3618,0.363,0.3632,0.3654,0.3756,0.3648,0.3649,0.3752,0.3908,0.4049,0.4081,0.3738,0.3739,0.3741,0.3987,0,0.3184,0.3272,0.331,0.3385,0.3431,0.3464,0.3512,0.3556,0.3587,0.363,0.364,0.368,0.3653,0.3671,0.3693,0.3722,0.3792,0.3696,0.3845,0.385,0.3969,0.4101,0.3955,0.4172,0.4003,0.4006,0.4008,0,0.3247,0.3293,0.3366,0.3433,0.3456,0.3494,0.3556,0.3606,0.3665,0.3693,0.3727,0.3742,0.3788,0.3749,0.3856,0.38,0.3866,0.3891,0.3901,0.4013,0.402,0.4085,0.4208,0.4083,0.4033,0.4031,0.4029,0,0.3243,0.3334,0.3381,0.341,0.3489,0.3511,0.355,0.3613,0.3661,0.3727,0.3775,0.3822,0.3875,0.3918,0.4007,0.3931,0.4147,0.4052,0.4261,0.4273,0.4167,0.4169,0.4176,0.4154,0.4154,0.4153,0.4152,0,0.3289,0.3327,0.3372,0.3402,0.3453,0.3501,0.3562,0.3612,0.3685,0.3763,0.3799,0.3892,0.3914,0.4043,0.4075,0.4273,0.4229,0.4309,0.4351,0.4194,0.4195,0.4093,0.4026,0.4162,0.416,0.4158,0.4157,0,0.3293,0.333,0.338,0.3438,0.3455,0.3487,0.3571,0.3617,0.3694,0.38,0.3831,0.3972,0.4167,0.4256,0.4385,0.4414,0.4442,0.4629,0.4492,0.4515,0.4546,0.4488,0.441,0.4281,0.4865,0.487,0.4874,0,0.3312,0.3332,0.3387,0.3411,0.3435,0.3485,0.3529,0.3611,0.3674,0.3871,0.3933,0.4161,0.4344,0.4643,0.4741,0.4914,0.4686,0.4874,0.4684,0.4585,0.4548,0.4303,0.4177,0.4583,0.4585,0.4586,0.4587,0,0.3339,0.3343,0.3381,0.3423,0.3458,0.3502,0.357,0.3614,0.374,0.386,0.4073,0.4234,0.4586,0.4723,0.4989,0.5041,0.4636,0.4912,0.4787,0.4345,0.4089,0.3973,0.4433,0.4598,0.4597,0.4596,0.4596,0.4595,0.3353,0.3372,0.3412,0.3443,0.3483,0.3507,0.3524,0.3626,0.3742,0.3906,0.4112,0.4319,0.4573,0.4938,0.4975,0.4939,0.4844,0.477,0.4725,0.4498,0.4302,0.4867,0.5093,0.5095,0.5096,0.5098,0.5099,0,0.3378,0.3398,0.3433,0.3464,0.3477,0.3501,0.3552,0.3553,0.3673,0.3883,0.4081,0.4326,0.4514,0.4653,0.4798,0.4717,0.4393,0.4589,0.4108,0.4003,0.4497,0.4412,0.4525,0.4525,0.4525,0.4525,0.4525,0.4525,0.34,0.3432,0.3434,0.3451,0.3457,0.3431,0.3436,0.3463,0.3564,0.3708,0.3844,0.403,0.4303,0.455,0.4521,0.442,0.4038,0.3944,0.3892,0.4159,0.4165,0.417,0.4071,0.411,0.4109,0.3162,0.3156,0.3151]},{"header":{"parameterUnit":"m.s-1","parameterCategory":2,"la1":30.2991,"la2":30.254,"lo1":-89.0895,"lo2":-89.0444,"dy":0.0017,"dx":0.0017,"nx":28,"ny":28,"refTime":"2024-06-05T21:00:00:Z","depth":"0","parameterNumber":3,"parameterNumberName":"V-component_of_CURRENTS"},"data":[0,0,0,0,0,0,0,0,0,0,0,0,0,0,0,0,0,0,0,0,0,0,0,0,0,0,0,0,0,0,0,0,0,0,0,0,0,0,0,0,0,0,0,0,0,0,0,0,0,0,0,0,0,0,0,0,0,0,-0.0354,-0.0356,0,-0.0543,-0.0545,-0.0548,-0.0619,-0.0619,-0.0618,-0.0617,-0.0848,-0.0854,-0.0861,0,0,0,0,0,0,0,0,0,0,0,0,0,-0.0172,-0.0174,-0.0354,-0.0356,-0.0358,-0.0543,-0.0545,-0.0548,-0.062,-0.0619,-0.0618,-0.0617,-0.0845,-0.0854,-0.0862,0,0,0,0,0,0,0,0,0,0,0,0,0,-0.0297,-0.0175,-0.0354,-0.0414,-0.0422,-0.0542,-0.0545,-0.0549,-0.062,-0.0619,-0.0617,-0.0616,-0.0843,-0.0853,-0.0863,-0.095,0,0,-0.0894,-0.0899,0,0,0,0,0,0,0,0,-0.0289,-0.0303,-0.0403,-0.041,-0.0419,-0.0554,-0.0566,-0.0684,-0.062,-0.0547,-0.0617,-0.0616,-0.0753,-0.077,-0.0811,-0.096,-0.097,-0.0895,-0.0902,-0.0906,-0.0909,0,0,0,0,0,0,0,-0.028,-0.0296,-0.0431,-0.0406,-0.0415,-0.0472,-0.0488,-0.0589,-0.0657,-0.0553,-0.0558,-0.0576,-0.0757,-0.0801,-0.0817,-0.0974,-0.0895,-0.0904,-0.091,-0.0914,-0.1196,-0.1198,0,0,0,0,0,0,-0.0248,-0.0288,-0.0425,-0.0437,-0.0347,-0.0476,-0.0493,-0.0514,-0.0655,-0.0674,-0.0577,-0.0579,-0.0784,-0.0805,-0.0826,-0.0932,-0.0906,-0.0915,-0.0921,-0.1195,-0.1197,-0.1198,0,0,0,0,0,0,-0.0244,-0.0259,-0.0417,-0.0364,-0.0388,-0.0479,-0.0502,-0.0518,-0.0562,-0.0672,-0.0692,-0.0603,-0.0784,-0.0811,-0.0927,-0.0941,-0.092,-0.0929,-0.1194,-0.1196,-0.1197,-0.1147,0,0,0,0,0,0,-0.0238,-0.0256,-0.0267,-0.0362,-0.039,-0.049,-0.0504,-0.0523,-0.0573,-0.0578,-0.0702,-0.0722,-0.0785,-0.0911,-0.0937,-0.0955,-0.0938,-0.1192,-0.1194,-0.1197,-0.1147,-0.1147,-0.1147,0,0,0,0,0,-0.0231,-0.0257,-0.0266,-0.0283,-0.0399,-0.0491,-0.0511,-0.0573,-0.0575,-0.0605,-0.0689,-0.0718,-0.0943,-0.0922,-0.0951,-0.0972,-0.1191,-0.1194,-0.1197,-0.1147,-0.1147,-0.1147,0,0,0,0,0,0,-0.0192,-0.0269,-0.0281,-0.033,-0.0399,-0.0501,-0.0541,-0.0573,-0.0664,-0.0668,-0.0757,-0.0785,-0.0883,-0.0943,-0.0916,-0.1059,-0.1064,-0.1073,-0.1016,-0.1017,-0.1017,-0.0953,-0.0946,0,0,0,0,0,-0.0183,-0.022,-0.0298,-0.0339,-0.0369,-0.045,-0.0495,-0.0535,-0.0623,-0.066,-0.0746,-0.0836,-0.0922,-0.0979,-0.1066,-0.1165,-0.1159,-0.1192,-0.1192,-0.1191,-0.116,-0.1182,-0.118,-0.1208,-0.1208,-0.1208,0,0,-0.018,-0.0227,-0.0248,-0.0333,-0.0391,-0.0444,-0.0476,-0.0545,-0.0586,-0.0675,-0.0768,-0.0846,-0.0948,-0.1046,-0.1094,-0.1099,-0.1179,-0.1195,-0.1193,-0.1162,-0.1185,-0.1182,-0.1179,-0.121,-0.1209,-0.1209,0,0,-0.0196,-0.0231,-0.0266,-0.0321,-0.04,-0.0448,-0.0461,-0.0562,-0.0601,-0.0701,-0.0762,-0.0844,-0.0996,-0.106,-0.1112,-0.1169,-0.1174,-0.1201,-0.116,-0.1183,-0.1179,-0.1176,-0.1144,-0.1139,-0.1205,-0.1205,-0.1205,0,-0.0186,-0.0235,-0.0293,-0.0342,-0.0376,-0.0441,-0.0478,-0.0541,-0.0665,-0.0695,-0.072,-0.0901,-0.0993,-0.1084,-0.1101,-0.1165,-0.1157,-0.115,-0.1178,-0.1175,-0.1172,-0.1141,-0.1135,-0.1203,-0.1203,-0.1203,-0.1203,0,-0.0231,-0.0266,-0.0295,-0.0362,-0.0409,-0.0457,-0.0529,-0.058,-0.0623,-0.068,-0.0773,-0.089,-0.0982,-0.1033,-0.109,-0.1128,-0.1118,-0.1168,-0.1164,-0.1166,-0.1134,-0.1128,-0.12,-0.12,-0.1201,-0.1202,0,0,-0.0209,-0.0302,-0.0309,-0.0319,-0.0415,-0.0447,-0.0512,-0.0576,-0.0584,-0.0702,-0.072,-0.0878,-0.091,-0.0968,-0.1047,-0.1075,-0.106,-0.1105,-0.1107,-0.1046,-0.106,-0.0972,-0.0958,-0.1112,-0.1112,-0.1111,-0.1035,0,-0.0217,-0.027,-0.0329,-0.0365,-0.0385,-0.0452,-0.049,-0.0553,-0.0606,-0.0645,-0.0745,-0.0799,-0.0895,-0.0916,-0.0969,-0.1038,-0.1048,-0.1072,-0.109,-0.1089,-0.0989,-0.095,-0.0897,-0.0818,-0.103,-0.1029,-0.1029,0,-0.0235,-0.0257,-0.0286,-0.0319,-0.0333,-0.0363,-0.0388,-0.0434,-0.0508,-0.0544,-0.0616,-0.0683,-0.0757,-0.082,-0.0916,-0.0925,-0.0973,-0.102,-0.102,-0.0943,-0.0991,-0.0859,-0.0801,-0.1052,-0.1021,-0.1022,-0.1022,0,-0.0152,-0.0222,-0.0222,-0.0244,-0.0303,-0.0311,-0.0333,-0.0395,-0.0392,-0.0454,-0.0432,-0.0565,-0.0569,-0.0688,-0.0792,-0.085,-0.085,-0.0955,-0.0913,-0.0906,-0.0863,-0.0853,-0.1022,-0.0985,-0.0985,-0.0986,-0.0986,0,-0.0124,-0.0121,-0.0175,-0.0171,-0.0141,-0.0216,-0.0185,-0.0227,-0.0251,-0.0191,-0.035,-0.0292,-0.0529,-0.057,-0.0715,-0.0759,-0.0792,-0.0861,-0.0875,-0.0843,-0.0832,-0.1051,-0.1191,-0.0983,-0.0983,-0.0984,-0.0984,0,-0.0029,-0.008,-0.0062,-0.0098,-0.0099,-0.0064,-0.0062,-0.0024,-0.0068,0.0018,0.0022,-0.0062,-0.0091,-0.0298,-0.0441,-0.0597,-0.0793,-0.0701,-0.0611,-0.0615,-0.0839,-0.0975,-0.107,-0.1179,-0.0658,-0.0655,-0.0653,0,0.002,0.003,0.0031,0.007,0.0062,0.0093,0.0135,0.0084,0.0145,0.0202,0.0285,0.0269,0.034,0.0152,-0.0134,-0.0338,-0.0617,-0.0458,-0.058,-0.08,-0.0966,-0.1082,-0.118,-0.0503,-0.05,-0.0497,-0.0495,0,0.0137,0.0131,0.0161,0.0236,0.0288,0.0342,0.0401,0.0478,0.0481,0.0596,0.0778,0.085,0.0682,0.0529,0.0202,-0.0002,-0.062,-0.0404,-0.0686,-0.0873,-0.0958,-0.1086,-0.0583,-0.0471,-0.0473,-0.0475,-0.0476,-0.0477,0.0253,0.0308,0.0348,0.0423,0.0497,0.061,0.0707,0.0819,0.0993,0.1225,0.1231,0.1443,0.1072,0.0662,0.0324,-0.0329,-0.0382,-0.0555,-0.0699,-0.0794,-0.0915,-0.0309,-0.0191,-0.0192,-0.0192,-0.0193,-0.0194,0,0.0404,0.0451,0.0533,0.0644,0.077,0.0746,0.0908,0.1047,0.1341,0.1599,0.1825,0.1831,0.1381,0.0774,-0.0065,-0.0548,-0.0818,-0.0864,-0.109,-0.1179,-0.0679,-0.0694,-0.0614,-0.0614,-0.0614,-0.0614,-0.0613,-0.0613,0.0497,0.0608,0.0634,0.0863,0.0951,0.1133,0.1243,0.1481,0.1692,0.2099,0.2302,0.241,0.1942,0.0392,-0.0741,-0.1033,-0.1446,-0.1461,-0.1706,-0.1458,-0.1445,-0.1432,-0.1485,-0.1573,-0.1574,-0.2168,-0.2174,-0.2178]}],[{"header":{"parameterUnit":"m.s-1","parameterCategory":2,"la1":30.2991,"la2":30.254,"lo1":-89.0895,"lo2":-89.0444,"dy":0.0017,"dx":0.0017,"nx":28,"ny":28,"refTime":"2024-06-05T21:00:00:Z","depth":"2","parameterNumber":2,"parameterNumberName":"U-component_of_CURRENTS"},"data":[0,0,0,0,0,0,0,0,0,0,0,0,0,0,0,0,0,0,0,0,0,0,0,0,0,0,0,0,0,0,0,0,0,0,0,0,0,0,0,0,0,0,0,0,0,0,0,0,0,0,0,0,0,0,0,0,0,0,0.227,0.2271,0,0.2362,0.2363,0.2363,0.2387,0.2387,0.2387,0.2387,0.255,0.2554,0.2558,0,0,0,0,0,0,0,0,0,0,0,0,0,0.2203,0.2203,0.227,0.2272,0.2273,0.2362,0.2363,0.2364,0.2387,0.2387,0.2387,0.2387,0.2548,0.2553,0.2558,0,0,0,0,0,0,0,0,0,0,0,0,0,0.2251,0.2203,0.227,0.2301,0.2305,0.2362,0.2363,0.2364,0.2387,0.2387,0.2387,0.2387,0.2546,0.2553,0.2559,0.2598,0,0,0.2579,0.2581,0,0,0,0,0,0,0,0,0.2248,0.2252,0.2294,0.2299,0.2304,0.2369,0.2399,0.2448,0.2387,0.2349,0.2387,0.2387,0.25,0.251,0.2517,0.2606,0.2612,0.2579,0.2583,0.2586,0.2588,0,0,0,0,0,0,0,0.2244,0.2249,0.23,0.2296,0.2302,0.2341,0.2346,0.2408,0.2419,0.2352,0.2356,0.2377,0.2502,0.2511,0.2521,0.2615,0.2579,0.2585,0.2589,0.2591,0.2795,0.2796,0,0,0,0,0,0,0.2241,0.2245,0.2297,0.2303,0.2283,0.2342,0.2348,0.2343,0.2417,0.243,0.2377,0.2378,0.25,0.2514,0.2527,0.2647,0.2586,0.2592,0.2596,0.2793,0.2795,0.2797,0,0,0,0,0,0,0.2239,0.2244,0.2293,0.2283,0.2293,0.2344,0.2337,0.2345,0.2375,0.2436,0.2449,0.2402,0.25,0.2518,0.2627,0.2651,0.2595,0.2601,0.2791,0.2794,0.2796,0.2843,0,0,0,0,0,0,0.2236,0.2242,0.2247,0.2282,0.2294,0.2352,0.2338,0.2347,0.2389,0.2392,0.2463,0.2476,0.2502,0.2618,0.2634,0.2659,0.2606,0.2789,0.2792,0.2795,0.284,0.2847,0.2853,0,0,0,0,0,0.2233,0.2246,0.2246,0.2254,0.2295,0.2355,0.2365,0.2396,0.2391,0.2419,0.2479,0.2475,0.2645,0.2626,0.2644,0.2671,0.2788,0.2791,0.2795,0.2837,0.2845,0.2853,0,0,0,0,0,0,0.2225,0.2251,0.2252,0.2272,0.232,0.2362,0.2404,0.2409,0.2472,0.2493,0.2521,0.2542,0.2638,0.2654,0.263,0.2735,0.2705,0.2713,0.2731,0.274,0.2746,0.2719,0.2611,0,0,0,0,0,0.2223,0.223,0.2275,0.2292,0.2327,0.2364,0.2394,0.2421,0.2478,0.2504,0.2566,0.2619,0.2661,0.2702,0.2759,0.2834,0.2856,0.2854,0.286,0.2866,0.2855,0.2881,0.2888,0.2808,0.2808,0.2808,0,0,0.2214,0.2241,0.2238,0.2291,0.2334,0.2406,0.2382,0.2454,0.2511,0.2518,0.2639,0.2664,0.2689,0.2772,0.2812,0.2793,0.2921,0.287,0.2875,0.2861,0.2885,0.2893,0.2899,0.281,0.281,0.281,0,0,0.2258,0.2243,0.2297,0.2339,0.2426,0.2451,0.2476,0.2555,0.2591,0.2694,0.2701,0.2742,0.2845,0.2852,0.2861,0.2938,0.2958,0.2954,0.2968,0.2994,0.3,0.3006,0.3127,0.3142,0.2952,0.2952,0.2952,0,0.2264,0.2312,0.2325,0.2411,0.2442,0.2476,0.255,0.2602,0.2708,0.2727,0.275,0.2836,0.2869,0.29,0.2923,0.2951,0.3001,0.2936,0.3001,0.3006,0.3011,0.3133,0.315,0.2955,0.2954,0.2954,0.2954,0,0.2368,0.2404,0.2447,0.2541,0.2583,0.2645,0.2714,0.2775,0.281,0.284,0.2905,0.2945,0.2967,0.2984,0.2982,0.3016,0.3061,0.3011,0.2977,0.3022,0.3149,0.3166,0.2959,0.2958,0.2957,0.2956,0,0,0.2359,0.2491,0.25,0.2536,0.2641,0.2672,0.2776,0.2837,0.2868,0.2958,0.2985,0.3037,0.302,0.3027,0.3022,0.3042,0.3148,0.3043,0.3044,0.316,0.3289,0.326,0.3276,0.3108,0.3109,0.311,0.3396,0,0.2432,0.2574,0.262,0.2708,0.2766,0.2796,0.2864,0.2919,0.2967,0.3021,0.3022,0.3068,0.3048,0.3053,0.3068,0.3122,0.318,0.308,0.3231,0.3237,0.3198,0.3287,0.3021,0.3244,0.3412,0.3414,0.3416,0,0.2511,0.2578,0.269,0.274,0.2768,0.282,0.2859,0.2934,0.3002,0.3036,0.3058,0.3082,0.3133,0.3096,0.3221,0.3164,0.323,0.3275,0.3285,0.3236,0.3233,0.321,0.3268,0.3443,0.3441,0.3439,0.3437,0,0.2466,0.2598,0.2663,0.269,0.2789,0.2808,0.2851,0.2921,0.2975,0.3044,0.3093,0.3134,0.3203,0.3244,0.3372,0.3295,0.3541,0.3439,0.3494,0.3499,0.3287,0.3267,0.3523,0.3522,0.3522,0.3521,0.352,0,0.249,0.2532,0.2637,0.2661,0.2702,0.277,0.2819,0.2871,0.2955,0.3044,0.3086,0.3186,0.3239,0.3389,0.3433,0.3566,0.3605,0.3526,0.3552,0.3307,0.3287,0.3435,0.342,0.3532,0.3529,0.3527,0.3525,0,0.245,0.253,0.2586,0.2667,0.2689,0.2711,0.2809,0.286,0.2945,0.307,0.3105,0.3271,0.3459,0.3565,0.3714,0.3686,0.3782,0.3824,0.3593,0.3581,0.371,0.3696,0.3863,0.3864,0.3865,0.3865,0.3866,0,0.2466,0.2491,0.2566,0.2609,0.2651,0.2703,0.2759,0.2838,0.292,0.3148,0.3223,0.3443,0.3568,0.3807,0.3826,0.3924,0.3936,0.3722,0.346,0.3728,0.3738,0.3722,0.3706,0.3262,0.3258,0.3254,0.3251,0,0.247,0.2484,0.2537,0.2604,0.2657,0.2718,0.281,0.2846,0.2997,0.3091,0.3282,0.3388,0.364,0.3607,0.3756,0.3753,0.3653,0.3647,0.4001,0.3192,0.3176,0.3181,0.3183,0.3219,0.3222,0.3225,0.3226,0.3228,0.2469,0.2492,0.2556,0.2605,0.2686,0.2741,0.2726,0.2846,0.2917,0.3022,0.3216,0.3274,0.3367,0.3401,0.3381,0.3372,0.3566,0.3375,0.338,0.339,0.3243,0.3225,0.3259,0.3263,0.3265,0.3268,0.327,0,0.2447,0.2502,0.2568,0.2615,0.2655,0.2719,0.2776,0.27,0.2731,0.2891,0.2964,0.2779,0.283,0.2936,0.2876,0.2896,0.2792,0.2774,0.2602,0.2641,0.2675,0.2481,0.2301,0.2297,0.2293,0.229,0,0,0.2445,0.2478,0.2493,0.255,0.2609,0.2588,0.2574,0.2451,0.2466,0.2427,0.2456,0.2666,0.2836,0.2496,0.2497,0.2387,0.2464,0.2298,0.3093,0.293,0.2956,0.3067,0.2822,0,0,0,0,0]},{"header":{"parameterUnit":"m.s-1","parameterCategory":2,"la1":30.2991,"la2":30.254,"lo1":-89.0895,"lo2":-89.0444,"dy":0.0017,"dx":0.0017,"nx":28,"ny":28,"refTime":"2024-06-05T21:00:00:Z","depth":"2","parameterNumber":3,"parameterNumberName":"V-component_of_CURRENTS"},"data":[0,0,0,0,0,0,0,0,0,0,0,0,0,0,0,0,0,0,0,0,0,0,0,0,0,0,0,0,0,0,0,0,0,0,0,0,0,0,0,0,0,0,0,0,0,0,0,0,0,0,0,0,0,0,0,0,0,0,0.007,0.0069,0,0.0023,0.0023,0.0023,-0.0029,-0.0031,-0.0032,-0.0033,-0.0307,-0.0313,-0.0319,0,0,0,0,0,0,0,0,0,0,0,0,0,0.0063,0.0064,0.007,0.0069,0.0068,0.0023,0.0023,0.0023,-0.0029,-0.0031,-0.0032,-0.0034,-0.0305,-0.0312,-0.0319,0,0,0,0,0,0,0,0,0,0,0,0,0,0.0051,0.0064,0.007,0.0033,0.0029,0.0024,0.0023,0.0023,-0.0029,-0.0031,-0.0033,-0.0034,-0.0302,-0.0311,-0.032,-0.0341,0,0,-0.0349,-0.0353,0,0,0,0,0,0,0,0,0.0052,0.0052,0.004,0.0036,0.0031,-0.0003,-0.008,-0.0112,-0.0029,-0.0002,-0.0033,-0.0035,-0.0228,-0.0243,-0.0238,-0.0354,-0.0366,-0.0349,-0.0355,-0.0359,-0.0362,0,0,0,0,0,0,0,0.0053,0.0053,0.0056,0.0039,0.0033,0.0001,-0.0002,-0.0085,-0.0105,-0.0004,-0.001,-0.0021,-0.0232,-0.0229,-0.0246,-0.037,-0.0349,-0.0357,-0.0363,-0.0367,-0.0592,-0.0592,0,0,0,0,0,0,0.0054,0.0055,0.0058,0.0054,0.0032,0.0003,-0.0,0.0013,-0.0099,-0.0118,-0.002,-0.0024,-0.0212,-0.0235,-0.0256,-0.0367,-0.0359,-0.0368,-0.0373,-0.0591,-0.0592,-0.0592,0,0,0,0,0,0,0.0055,0.0056,0.0059,0.0048,0.0045,0.0005,0.002,0.0013,-0.0,-0.0109,-0.0132,-0.0029,-0.0215,-0.0243,-0.0354,-0.0376,-0.0372,-0.038,-0.0591,-0.0591,-0.0592,-0.0541,0,0,0,0,0,0,0.0055,0.0058,0.0068,0.0049,0.0046,0.007,0.0021,0.0014,-0.0006,-0.0012,-0.0125,-0.015,-0.0218,-0.0339,-0.0363,-0.0389,-0.0387,-0.059,-0.0591,-0.0592,-0.0542,-0.054,-0.0538,0,0,0,0,0,0.0056,0.0084,0.007,0.0069,0.0063,0.0071,0.0069,0.0035,-0.0005,0.0012,-0.0095,-0.0148,-0.0361,-0.0347,-0.0375,-0.0404,-0.059,-0.0591,-0.0592,-0.0543,-0.0541,-0.0538,0,0,0,0,0,0,0.0082,0.008,0.0064,0.0088,0.0083,0.0061,0.0061,0.0035,-0.0027,-0.0056,-0.0164,-0.0196,-0.0298,-0.0353,-0.0336,-0.0468,-0.048,-0.0486,-0.0433,-0.0432,-0.043,-0.0395,-0.0395,0,0,0,0,0,0.0094,0.0117,0.0104,0.0122,0.0118,0.0087,0.008,0.0062,0.0004,-0.0022,-0.0134,-0.0238,-0.0316,-0.0376,-0.0458,-0.0537,-0.0557,-0.0569,-0.0567,-0.0565,-0.0554,-0.0607,-0.0608,-0.0595,-0.0595,-0.0595,0,0,0.011,0.0107,0.0121,0.0129,0.0114,0.0114,0.0081,0.0079,0.0051,-0.005,-0.0161,-0.0244,-0.0335,-0.0422,-0.0472,-0.0479,-0.0573,-0.0566,-0.0564,-0.0554,-0.0608,-0.0609,-0.061,-0.0596,-0.0596,-0.0596,0,0,0.0137,0.0149,0.0164,0.0163,0.0147,0.0137,0.0135,0.0085,0.004,-0.0055,-0.0134,-0.0219,-0.0379,-0.0428,-0.0472,-0.0504,-0.0559,-0.0546,-0.0518,-0.0569,-0.057,-0.0572,-0.0568,-0.057,-0.0547,-0.0546,-0.0546,0,0.0142,0.017,0.017,0.0171,0.0169,0.0144,0.0151,0.0113,0.0017,-0.0025,-0.0093,-0.0284,-0.037,-0.0431,-0.0453,-0.0498,-0.0528,-0.052,-0.0565,-0.0567,-0.0569,-0.0566,-0.0568,-0.0544,-0.0544,-0.0545,-0.0545,0,0.0176,0.0187,0.0196,0.0192,0.0196,0.0209,0.0162,0.0122,0.0041,-0.0015,-0.0128,-0.0245,-0.0346,-0.039,-0.0447,-0.0498,-0.0511,-0.0553,-0.0566,-0.0567,-0.0564,-0.0567,-0.0541,-0.0542,-0.0542,-0.0543,0,0,0.0213,0.0219,0.0216,0.0223,0.0214,0.0227,0.0184,0.0157,0.0133,-0.0006,-0.0058,-0.0205,-0.0269,-0.032,-0.0394,-0.0451,-0.0493,-0.0519,-0.0523,-0.0503,-0.0583,-0.0546,-0.0545,-0.0563,-0.0564,-0.0565,-0.0562,0,0.0233,0.025,0.0246,0.0265,0.028,0.0256,0.0229,0.0193,0.0125,0.0056,-0.0053,-0.0141,-0.024,-0.0291,-0.0364,-0.0463,-0.0506,-0.0488,-0.0595,-0.0596,-0.0555,-0.055,-0.0532,-0.0526,-0.0566,-0.0566,-0.0567,0,0.0261,0.0277,0.0296,0.0316,0.0318,0.0313,0.0307,0.0279,0.0205,0.0141,0.0052,-0.004,-0.0137,-0.0229,-0.0382,-0.0378,-0.0476,-0.0551,-0.0554,-0.0539,-0.0566,-0.054,-0.0531,-0.0573,-0.0572,-0.0572,-0.0571,0,0.0297,0.0313,0.0336,0.0341,0.035,0.0339,0.0335,0.0291,0.0286,0.0198,0.0187,0.0045,-0.0015,-0.0174,-0.0331,-0.0379,-0.0478,-0.0556,-0.0596,-0.0592,-0.0603,-0.0599,-0.0655,-0.0655,-0.0655,-0.0655,-0.0655,0,0.033,0.0341,0.0349,0.0361,0.0396,0.0376,0.0395,0.0365,0.0343,0.0383,0.023,0.0255,-0.0018,-0.0104,-0.0277,-0.0417,-0.0432,-0.0575,-0.0596,-0.0581,-0.0575,-0.0648,-0.0647,-0.0654,-0.0655,-0.0655,-0.0655,0,0.0338,0.0346,0.0381,0.0399,0.0409,0.0422,0.0451,0.0476,0.0441,0.0496,0.0475,0.0394,0.0294,0.0072,-0.0144,-0.0312,-0.0467,-0.0509,-0.044,-0.0455,-0.0562,-0.0559,-0.0576,-0.0575,-0.0574,-0.0573,-0.0573,0,0.0329,0.0348,0.0408,0.0446,0.0444,0.0473,0.0512,0.0508,0.0562,0.0628,0.068,0.0604,0.0607,0.0323,-0.0006,-0.0279,-0.0349,-0.0442,-0.0543,-0.0538,-0.0557,-0.0556,-0.0554,-0.0526,-0.0525,-0.0524,-0.0524,0,0.0324,0.0345,0.0388,0.0475,0.0524,0.0605,0.0661,0.0739,0.079,0.0883,0.1037,0.1053,0.0779,0.0506,0.0094,-0.01,-0.0412,-0.0432,-0.0455,-0.0542,-0.049,-0.0509,-0.0509,-0.0516,-0.0517,-0.0517,-0.0518,-0.0518,0.0321,0.0356,0.043,0.0508,0.0591,0.073,0.0837,0.0955,0.1121,0.1276,0.1298,0.1319,0.0956,0.0436,0.0102,-0.0296,-0.0307,-0.0478,-0.0481,-0.0486,-0.0474,-0.0423,-0.0431,-0.0431,-0.0431,-0.0432,-0.0432,0,0.0339,0.0386,0.0461,0.0587,0.0707,0.0743,0.0946,0.109,0.1349,0.1444,0.1564,0.1266,0.0947,0.0541,-0.0045,-0.0381,-0.0448,-0.0476,-0.0507,-0.051,-0.0515,-0.0508,-0.0472,-0.0473,-0.0474,-0.0475,0,0,0.0357,0.0435,0.0479,0.0666,0.0764,0.0972,0.1124,0.1356,0.1482,0.1621,0.1606,0.1514,0.104,0.0612,0.0159,-0.0159,-0.026,-0.0219,-0.0153,-0.0139,-0.014,-0.0481,-0.0469,0,0,0,0,0]}],[{"header":{"parameterUnit":"m.s-1","parameterCategory":2,"la1":30.2991,"la2":30.254,"lo1":-89.0895,"lo2":-89.0444,"dy":0.0017,"dx":0.0017,"nx":28,"ny":28,"refTime":"2024-06-05T21:00:00:Z","depth":"4","parameterNumber":2,"parameterNumberName":"U-component_of_CURRENTS"},"data":[0,0,0,0,0,0,0,0,0,0,0,0,0,0,0,0,0,0,0,0,0,0,0,0,0,0,0,0,0,0,0,0,0,0,0,0,0,0,0,0,0,0,0,0,0,0,0,0,0,0,0,0,0,0,0,0,0,0,0.1216,0.1217,0,0.1248,0.1249,0.1249,0.1292,0.1293,0.1294,0.1295,0.1335,0.1336,0.1336,0,0,0,0,0,0,0,0,0,0,0,0,0,0.1189,0.119,0.1216,0.1217,0.1217,0.1248,0.1249,0.1249,0.1292,0.1293,0.1294,0.1295,0.1335,0.1335,0.1336,0,0,0,0,0,0,0,0,0,0,0,0,0,0.1208,0.119,0.1216,0.1243,0.1246,0.1248,0.1249,0.1249,0.1292,0.1293,0.1294,0.1295,0.1335,0.1335,0.1336,0.1315,0,0,0.1337,0.1338,0,0,0,0,0,0,0,0,0.1207,0.1209,0.1239,0.1241,0.1244,0.1268,0.1254,0.1272,0.1292,0.1273,0.1295,0.1296,0.1313,0.1316,0.1318,0.1317,0.1319,0.1337,0.1338,0.1338,0.1338,0,0,0,0,0,0,0,0.1206,0.1208,0.1228,0.1239,0.1243,0.1253,0.1257,0.1258,0.1286,0.1275,0.1279,0.1283,0.1315,0.1317,0.1319,0.1319,0.1337,0.1338,0.1338,0.1338,0.1421,0.1423,0,0,0,0,0,0,0.1202,0.1207,0.1227,0.1229,0.1229,0.1252,0.1257,0.1259,0.1286,0.1291,0.1282,0.1285,0.1316,0.1318,0.1321,0.1389,0.1338,0.1338,0.1339,0.1419,0.1422,0.1424,0,0,0,0,0,0,0.1202,0.1204,0.1226,0.122,0.1223,0.1252,0.1253,0.1259,0.1288,0.1291,0.1297,0.131,0.1317,0.132,0.1358,0.1387,0.1339,0.1339,0.1417,0.142,0.1423,0.1467,0,0,0,0,0,0,0.1201,0.1203,0.1212,0.1219,0.1224,0.1241,0.1253,0.1259,0.1288,0.1293,0.1316,0.1319,0.1318,0.1357,0.1359,0.1387,0.134,0.1415,0.1418,0.1422,0.1463,0.1471,0.1477,0,0,0,0,0,0.12,0.12,0.1212,0.1216,0.1232,0.1241,0.1244,0.1268,0.1289,0.13,0.1331,0.132,0.1381,0.1359,0.136,0.1389,0.1413,0.1417,0.1421,0.1459,0.1469,0.1477,0,0,0,0,0,0,0.1194,0.1205,0.1218,0.1224,0.124,0.1249,0.1262,0.1281,0.1312,0.1329,0.1337,0.1342,0.1389,0.1385,0.1361,0.1427,0.1398,0.1403,0.1427,0.1436,0.1443,0.1465,0.134,0,0,0,0,0,0.1196,0.1204,0.1215,0.1225,0.1232,0.1254,0.1265,0.1284,0.1307,0.1324,0.1347,0.1376,0.1401,0.1416,0.1434,0.1461,0.1477,0.1485,0.1492,0.1498,0.152,0.1564,0.1577,0.1438,0.1438,0.1437,0,0,0.1193,0.1206,0.1208,0.1226,0.124,0.1255,0.1264,0.1288,0.1317,0.1321,0.1378,0.1401,0.1416,0.1457,0.1477,0.1459,0.1548,0.1504,0.1509,0.1528,0.157,0.1584,0.1596,0.1441,0.144,0.144,0,0,0.1184,0.1207,0.1204,0.1225,0.1254,0.127,0.1284,0.1313,0.1344,0.1392,0.1412,0.1466,0.1492,0.1522,0.1535,0.1595,0.1586,0.1593,0.1645,0.1687,0.1699,0.1709,0.1749,0.1762,0.1595,0.1595,0.1595,0,0.1183,0.1187,0.1207,0.122,0.1246,0.1281,0.1297,0.1327,0.1374,0.1414,0.1421,0.1517,0.153,0.1592,0.162,0.1612,0.1629,0.1604,0.1696,0.1706,0.1716,0.1754,0.1769,0.1597,0.1597,0.1597,0.1597,0,0.1165,0.1186,0.1192,0.1224,0.1256,0.1277,0.1323,0.1374,0.1425,0.1463,0.1552,0.1586,0.1651,0.1658,0.1658,0.1738,0.1725,0.1698,0.1669,0.1733,0.1769,0.1783,0.1601,0.16,0.1599,0.1599,0,0,0.112,0.1166,0.1174,0.1201,0.1267,0.1289,0.1358,0.1425,0.1487,0.1551,0.1634,0.1698,0.174,0.1761,0.1773,0.1811,0.1897,0.1789,0.179,0.1822,0.1992,0.1901,0.1908,0.1877,0.188,0.1882,0.1989,0,0.1104,0.1125,0.1164,0.1213,0.1231,0.1312,0.1371,0.1452,0.1531,0.1621,0.169,0.1769,0.1768,0.1815,0.1857,0.1897,0.1937,0.1871,0.1932,0.1935,0.184,0.1922,0.1891,0.1999,0.2002,0.2005,0.2006,0,0.107,0.11,0.1132,0.122,0.1238,0.1286,0.142,0.1478,0.1611,0.1679,0.1786,0.1842,0.195,0.192,0.2036,0.1993,0.2008,0.202,0.2024,0.1937,0.1871,0.1924,0.2032,0.203,0.2028,0.2026,0.2025,0,0.1022,0.1083,0.1115,0.1143,0.124,0.1301,0.1372,0.1506,0.1579,0.1736,0.1817,0.1933,0.2026,0.2066,0.2129,0.209,0.223,0.2173,0.2104,0.2097,0.2124,0.2112,0.2241,0.2241,0.2241,0.2241,0.224,0,0.098,0.1008,0.1101,0.112,0.1187,0.1281,0.138,0.1475,0.1622,0.1716,0.1849,0.1943,0.2068,0.2162,0.2171,0.2203,0.2275,0.2143,0.2128,0.214,0.2128,0.2134,0.212,0.2245,0.2244,0.2243,0.2242,0,0.0902,0.0958,0.1003,0.1116,0.116,0.1216,0.137,0.1441,0.1598,0.1735,0.1797,0.1996,0.2135,0.2229,0.2325,0.227,0.2291,0.2271,0.2311,0.2291,0.2116,0.2104,0.221,0.2208,0.2206,0.2204,0.2203,0,0.0848,0.0864,0.0984,0.1024,0.1078,0.1177,0.1245,0.1411,0.1493,0.1746,0.1798,0.2013,0.2127,0.221,0.2297,0.2341,0.23,0.2293,0.218,0.2143,0.2119,0.2109,0.2099,0.22,0.22,0.2199,0.2199,0,0.0756,0.0813,0.086,0.094,0.1018,0.1085,0.1204,0.1255,0.1457,0.1619,0.1785,0.1899,0.2063,0.2163,0.2234,0.2237,0.229,0.2273,0.2275,0.2169,0.2133,0.2108,0.21,0.2193,0.2194,0.2194,0.2194,0,0.0692,0.0709,0.0784,0.0847,0.0926,0.097,0.1052,0.1176,0.1285,0.1574,0.1626,0.1856,0.2045,0.2111,0.2157,0.2191,0.2145,0.205,0.2062,0.207,0.1977,0.1907,0.1912,0,0,0,0,0,0.0617,0.0633,0.0685,0.0748,0.0817,0.0872,0.1008,0.1101,0.1305,0.1388,0.1512,0.1659,0.1817,0.1926,0.1934,0.2071,0.2123,0.2068,0.201,0.2158,0.2165,0.2068,0,0,0,0,0,0,0.0573,0.061,0.0645,0.064,0.0672,0.0742,0.083,0.0977,0.1037,0.1265,0.1362,0.1549,0.1717,0.1799,0.1899,0.1932,0.186,0.2211,0.2206,0.2154,0.2161,0.2166,0.2069,0,0,0,0,0]},{"header":{"parameterUnit":"m.s-1","parameterCategory":2,"la1":30.2991,"la2":30.254,"lo1":-89.0895,"lo2":-89.0444,"dy":0.0017,"dx":0.0017,"nx":28,"ny":28,"refTime":"2024-06-05T21:00:00:Z","depth":"4","parameterNumber":3,"parameterNumberName":"V-component_of_CURRENTS"},"data":[0,0,0,0,0,0,0,0,0,0,0,0,0,0,0,0,0,0,0,0,0,0,0,0,0,0,0,0,0,0,0,0,0,0,0,0,0,0,0,0,0,0,0,0,0,0,0,0,0,0,0,0,0,0,0,0,0,0,0.0302,0.0303,0,0.0329,0.0329,0.0329,0.0305,0.0304,0.0304,0.0303,0.0334,0.0336,0.0337,0,0,0,0,0,0,0,0,0,0,0,0,0,0.0221,0.0223,0.0302,0.0303,0.0303,0.0329,0.0329,0.0329,0.0306,0.0304,0.0303,0.0302,0.0333,0.0335,0.0337,0,0,0,0,0,0,0,0,0,0,0,0,0,0.0252,0.0224,0.0302,0.0295,0.0295,0.0329,0.0329,0.0329,0.0306,0.0304,0.0303,0.0302,0.0333,0.0335,0.0338,0.0379,0,0,0.0345,0.0346,0,0,0,0,0,0,0,0,0.025,0.0255,0.0296,0.0296,0.0295,0.0313,0.0312,0.0347,0.0306,0.0301,0.0303,0.0301,0.0329,0.0332,0.0338,0.0381,0.0382,0.0345,0.0347,0.0348,0.0349,0,0,0,0,0,0,0,0.0248,0.0254,0.0312,0.0296,0.0296,0.0287,0.029,0.0318,0.0321,0.0301,0.03,0.0304,0.0329,0.0336,0.0339,0.0383,0.0345,0.0348,0.0349,0.035,0.0439,0.044,0,0,0,0,0,0,0.025,0.0252,0.0311,0.0313,0.027,0.029,0.0293,0.0308,0.0321,0.0322,0.0306,0.0303,0.0332,0.0336,0.034,0.0394,0.0348,0.035,0.0352,0.0438,0.0439,0.044,0,0,0,0,0,0,0.0248,0.0255,0.031,0.0283,0.0289,0.0293,0.031,0.0309,0.032,0.0324,0.0325,0.0317,0.0331,0.0336,0.0373,0.0395,0.0351,0.0354,0.0437,0.0438,0.044,0.05,0,0,0,0,0,0,0.0246,0.0255,0.0271,0.0283,0.0291,0.0344,0.0311,0.0311,0.0326,0.0323,0.0335,0.0336,0.0331,0.0369,0.0375,0.0397,0.0356,0.0436,0.0438,0.0439,0.0497,0.0503,0.0509,0,0,0,0,0,0.0243,0.0281,0.0272,0.0279,0.0312,0.0346,0.035,0.0346,0.0328,0.0348,0.0349,0.0336,0.0383,0.0373,0.038,0.0403,0.0435,0.0437,0.0439,0.0494,0.0502,0.0509,0,0,0,0,0,0,0.0256,0.0282,0.0273,0.0316,0.0332,0.0343,0.0367,0.0356,0.0374,0.0372,0.0361,0.0364,0.0399,0.0396,0.0385,0.043,0.0402,0.0405,0.0442,0.0449,0.0455,0.0441,0.0358,0,0,0,0,0,0.0266,0.03,0.0314,0.0348,0.0361,0.0363,0.0376,0.0374,0.0388,0.0393,0.0397,0.0401,0.0414,0.0427,0.0439,0.048,0.0427,0.0493,0.0499,0.0504,0.0496,0.0431,0.0429,0.0447,0.0447,0.0447,0,0,0.0281,0.0299,0.0317,0.0353,0.0365,0.0401,0.0368,0.0402,0.0425,0.0397,0.0436,0.0429,0.0428,0.0463,0.0478,0.0465,0.0473,0.0507,0.0511,0.05,0.0433,0.043,0.0429,0.0448,0.0448,0.0447,0,0,0.0335,0.0344,0.0392,0.0411,0.0438,0.0439,0.0451,0.0468,0.0471,0.0512,0.0483,0.0483,0.0526,0.051,0.0511,0.0559,0.0504,0.057,0.0595,0.0533,0.053,0.0527,0.0461,0.0451,0.0575,0.0575,0.0575,0,0.0347,0.0406,0.0411,0.0458,0.0476,0.046,0.0505,0.0516,0.0538,0.0539,0.0535,0.0542,0.0542,0.055,0.0563,0.0571,0.0524,0.0572,0.0539,0.0535,0.053,0.0463,0.0451,0.0578,0.0578,0.0578,0.0577,0,0.0435,0.0477,0.051,0.0557,0.0577,0.0617,0.0623,0.0638,0.0634,0.0629,0.0637,0.0624,0.0616,0.062,0.0614,0.0591,0.0563,0.055,0.0518,0.0532,0.046,0.0447,0.0583,0.0582,0.0581,0.058,0,0,0.047,0.0555,0.0564,0.0591,0.0629,0.0651,0.0689,0.0708,0.0715,0.072,0.0718,0.0724,0.0686,0.0682,0.0657,0.0608,0.0543,0.0575,0.0571,0.0503,0.0397,0.0349,0.033,0.0524,0.0523,0.0521,0.0359,0,0.0533,0.0629,0.0656,0.0727,0.0768,0.0761,0.0794,0.08,0.0795,0.079,0.0747,0.0747,0.072,0.0712,0.0658,0.0573,0.0512,0.0588,0.0398,0.0392,0.0342,0.0314,0.0515,0.0349,0.0346,0.0344,0.0342,0,0.0607,0.0656,0.0745,0.0795,0.0812,0.0852,0.0866,0.0894,0.0876,0.0869,0.0837,0.0799,0.0738,0.0709,0.0551,0.0601,0.0503,0.0428,0.042,0.0341,0.0319,0.0331,0.0318,0.032,0.0322,0.0323,0.0325,0,0.0616,0.0711,0.0777,0.0799,0.086,0.0891,0.0916,0.0919,0.0937,0.091,0.0904,0.0822,0.078,0.0649,0.0503,0.0524,0.0307,0.0314,0.017,0.0165,0.0232,0.0236,0.0182,0.0182,0.0182,0.0183,0.0183,0,0.0661,0.0712,0.0791,0.0827,0.0888,0.0919,0.0971,0.0977,0.0987,0.0994,0.0942,0.091,0.0763,0.0631,0.0493,0.0282,0.0292,0.0153,0.0113,0.0263,0.0273,0.0222,0.0229,0.0177,0.0178,0.0179,0.018,0,0.0662,0.0724,0.0795,0.0872,0.0903,0.0941,0.1019,0.1045,0.1054,0.1055,0.105,0.0962,0.0783,0.061,0.0382,0.0269,0.0076,-0.0002,0.0156,0.0131,-0.0022,-0.001,-0.018,-0.0184,-0.0186,-0.0188,-0.019,0,0.067,0.0713,0.0813,0.0857,0.0904,0.0974,0.1023,0.1071,0.1096,0.1076,0.1066,0.0923,0.0832,0.0471,0.0293,-0.0002,-0.0033,-0.0128,-0.0065,-0.0041,-0.0063,-0.0046,-0.0031,-0.0195,-0.0195,-0.0196,-0.0197,0,0.0667,0.071,0.0763,0.0855,0.0927,0.1003,0.1077,0.11,0.1136,0.1144,0.1055,0.0893,0.068,0.0439,0.0203,0.0002,-0.006,-0.0157,-0.0151,-0.0093,-0.0061,-0.0075,-0.0057,-0.0206,-0.0205,-0.0204,-0.0204,0,0.0652,0.068,0.0759,0.0833,0.0926,0.1005,0.1054,0.108,0.111,0.1094,0.1053,0.0855,0.0751,0.0436,0.022,0.0011,-0.0028,-0.0067,-0.0067,-0.0059,0.0032,0.0094,-0.0058,0,0,0,0,0,0.0628,0.0663,0.0729,0.0823,0.0916,0.0979,0.1071,0.1113,0.1149,0.1084,0.1074,0.0875,0.056,0.0433,0.021,0.0164,-0.0067,-0.0103,-0.0113,-0.0259,-0.0248,-0.0166,0,0,0,0,0,0,0.0615,0.0676,0.0711,0.08,0.0863,0.0973,0.104,0.1074,0.1041,0.1042,0.0874,0.0813,0.0502,0.0672,0.0199,0.0138,0.0103,-0.0243,-0.0247,-0.0265,-0.0255,-0.0246,-0.0158,0,0,0,0,0]}]]